Location: Bonny Doon Airfield
(37.0704°N, 122.1252°W)
Time: 15:55:34
(UTC-08:00)

Vanguard 2 - Pass Details

Date: 17 December 2017
Orbit: 553 x 2939 km, 32.9° (Epoch: 22 January)

Event Time Altitude Azimuth Distance (km) Brightness Sun altitude
Rises 18:23:06 0° 273° (W) 3,666 12.4 -17.3°
Reaches altitude 10° 18:26:23 10° 264° (W) 2,403 11.3 -17.9°
Maximum altitude 18:31:02 31° 202° (SSW) 1,132 8.7 -18.8°
Enters shadow 18:34:04 14° 144° (SE) 1,655 9.0 -19.4°
Drops below altitude 10° 18:34:41 10° 139° (SE) 1,863 - -19.5°
Sets 18:36:55 0° 128° (SE) 2,709 - -19.9°
